QPF
0.03 0.02 0.02 0.01 0.01 0.01 0.01 0.01 0.01 0.01 0.01 0.01 0.01 0.01 0.01 0.02 0.02 0.02 0.02 0.01 0.01 0.01 0.01 0.01 0.01 0.00 0.01 0.02 0.03 0.03 0.03 0.04 0.04 0.03 0.03 0.03 0.04 0.05 0.06 0.05 0.07 0.05 0.04
0.06 0.07 0.03 0.02 0.02 0.03 0.04 0.03 0.02 0.01 0.01 0.01 0.00 0.00 0.01 0.01 0.02 0.01 0.01 0.01 0.01 0.01 0.01 0.01 0.00 0.00 0.01 0.01 0.02 0.02 0.02 0.02 0.03 0.04 0.05 0.03 0.04 0.07 0.08 0.05 0.06 0.07 0.06
0.13 0.17 0.06 0.05 0.06 0.10 0.13 0.03 0.02 0.01 0.01 0.01 0.01 0.01 0.01 0.00 0.01 0.01 0.01 0.01 0.01 0.01 0.01 0.01 0.01 0.01 0.01 0.01 0.01 0.02 0.02 0.02 0.04 0.05 0.07 0.05 0.03 0.04 0.06 0.06 0.06 0.05 0.06
0.07 0.07 0.05 0.08 0.07 0.05 0.04 0.02 0.02 0.01 0.01 0.01 0.01 0.01 0.01 0.01 0.01 0.01 0.01 0.01 0.02 0.02 0.02 0.02 0.01 0.01 0.01 0.02 0.02 0.05 0.04 0.03 0.05 0.05 0.04 0.04 0.05 0.05 0.04 0.03 0.04 0.04 0.05
0.03 0.04 0.04 0.04 0.03 0.03 0.02 0.02 0.02 0.02 0.02 0.01 0.01 0.01 0.01 0.01 0.02 0.02 0.02 0.01 0.01 0.02 0.02 0.02 0.03 0.03 0.03 0.04 0.05 0.06 0.05 0.04 0.03 0.04 0.04 0.03 0.05 0.05 0.04 0.02 0.02 0.02 0.02
0.02 0.03 0.05 0.07 0.04 0.03 0.02 0.02 0.02 0.02 0.01 0.01 0.01 0.01 0.01 0.01 0.01 0.01 0.01 0.02 0.01 0.01 0.02 0.01 0.02 0.03 0.03 0.04 0.05 0.06 0.05 0.04 0.03 0.03 0.04 0.03 0.04 0.03 0.04 0.03 0.01 0.01 0.01
0.01 0.02 0.03 0.10 0.08 0.04 0.02 0.02 0.02 0.01 0.01 0.01 0.01 0.01 0.01 0.00 0.01 0.01 0.01 0.01 0.01 0.02 0.02 0.02 0.03 0.03 0.03 0.04 0.05 0.05 0.04 0.04 0.04 0.03 0.03 0.03 0.03 0.03 0.03 0.03 0.02 0.00 0.00
0.01 0.00 0.00 0.03 0.05 0.02 0.01 0.01 0.02 0.01 0.01 0.01 0.01 0.01 0.00 0.00 0.01 0.01 0.01 0.01 0.01 0.02 0.02 0.03 0.04 0.04 0.04 0.05 0.06 0.05 0.04 0.04 0.04 0.03 0.03 0.03 0.03 0.04 0.04 0.04 0.03 0.02 0.01
0.01 0.01 0.00 0.00 0.01 0.01 0.02 0.01 0.02 0.02 0.02 0.01 0.01 0.01 0.00 0.00 0.01 0.03 0.02 0.02 0.02 0.02 0.02 0.03 0.04 0.04 0.06 0.07 0.07 0.06 0.05 0.04 0.04 0.04 0.04 0.04 0.04 0.05 0.06 0.06 0.05 0.05 0.04
0.01 0.01 0.01 0.01 0.01 0.01 0.03 0.03 0.01 0.02 0.02 0.02 0.01 0.01 0.01 0.02 0.03 0.04 0.04 0.03 0.03 0.03 0.03 0.03 0.04 0.04 0.05 0.06 0.07 0.06 0.05 0.04 0.04 0.04 0.04 0.04 0.05 0.04 0.04 0.04 0.04 0.05 0.04
0.02 0.01 0.02 0.02 0.02 0.02 0.03 0.03 0.02 0.02 0.02 0.02 0.02 0.02 0.02 0.04 0.05 0.04 0.04 0.04 0.04 0.04 0.04 0.03 0.04 0.03 0.03 0.04 0.06 0.06 0.06 0.06 0.05 0.06 0.07 0.05 0.04 0.03 0.03 0.03 0.03 0.04 0.05
0.02 0.02 0.02 0.02 0.03 0.03 0.03 0.04 0.04 0.06 0.07 0.07 0.06 0.06 0.06 0.06 0.06 0.05 0.04 0.04 0.05 0.04 0.05 0.04 0.04 0.04 0.04 0.04 0.05 0.07 0.08 0.07 0.06 0.05 0.06 0.05 0.03 0.03 0.04 0.04 0.04 0.03 0.04
0.02 0.02 0.02 0.03 0.03 0.05 0.05 0.04 0.04 0.06 0.08 0.09 0.09 0.08 0.07 0.04 0.03 0.03 0.04 0.04 0.05 0.04 0.04 0.04 0.04 0.04 0.04 0.04 0.04 0.05 0.05 0.04 0.04 0.03 0.03 0.04 0.04 0.03 0.04 0.04 0.04 0.04 0.04
0.02 0.02 0.02 0.02 0.02 0.04 0.06 0.05 0.04 0.05 0.06 0.05 0.06 0.06 0.05 0.04 0.03 0.03 0.03 0.03 0.03 0.03 0.03 0.03 0.03 0.04 0.04 0.04 0.05 0.04 0.02 0.02 0.02 0.02 0.02 0.03 0.04 0.04 0.04 0.04 0.04 0.04 0.04
0.04 0.03 0.02 0.02 0.02 0.03 0.05 0.06 0.07 0.08 0.08 0.06 0.04 0.04 0.04 0.04 0.04 0.04 0.04 0.03 0.02 0.03 0.03 0.03 0.03 0.03 0.03 0.02 0.03 0.03 0.02 0.01 0.01 0.01 0.01 0.02 0.02 0.03 0.04 0.04 0.03 0.04 0.04
0.08 0.06 0.04 0.02 0.02 0.04 0.07 0.11 0.13 0.12 0.10 0.07 0.06 0.04 0.04 0.04 0.04 0.05 0.06 0.05 0.04 0.03 0.03 0.02 0.02 0.02 0.02 0.02 0.03 0.02 0.01 0.01 0.01 0.01 0.01 0.01 0.02 0.02 0.03 0.03 0.03 0.04 0.04
0.09 0.08 0.06 0.03 0.02 0.03 0.07 0.11 0.19 0.20 0.15 0.09 0.06 0.05 0.05 0.05 0.05 0.06 0.07 0.06 0.05 0.05 0.04 0.03 0.02 0.02 0.02 0.02 0.01 0.01 0.01 0.01 0.01 0.01 0.01 0.01 0.02 0.02 0.02 0.02 0.02 0.02 0.03
0.05 0.05 0.05 0.04 0.06 0.07 0.10 0.12 0.17 0.25 0.27 0.23 0.15 0.11 0.08 0.07 0.07 0.07 0.06 0.05 0.05 0.05 0.04 0.03 0.02 0.02 0.02 0.02 0.02 0.02 0.02 0.01 0.01 0.01 0.01 0.01 0.02 0.03 0.04 0.04 0.02 0.02 0.02
0.04 0.06 0.05 0.06 0.13 0.13 0.12 0.13 0.14 0.17 0.23 0.31 0.29 0.20 0.14 0.13 0.11 0.09 0.08 0.08 0.07 0.06 0.05 0.04 0.03 0.02 0.03 0.04 0.04 0.03 0.02 0.01 0.01 0.01 0.02 0.02 0.02 0.03 0.05 0.04 0.04 0.02 0.02
0.03 0.05 0.05 0.05 0.07 0.06 0.06 0.05 0.06 0.09 0.10 0.13 0.21 0.25 0.23 0.20 0.17 0.14 0.16 0.16 0.15 0.13 0.10 0.07 0.05 0.04 0.04 0.05 0.05 0.04 0.02 0.01 0.01 0.01 0.02 0.02 0.03 0.03 0.04 0.03 0.03 0.02 0.02
0.08 0.09 0.08 0.07 0.06 0.04 0.04 0.04 0.05 0.06 0.07 0.09 0.13 0.21 0.25 0.28 0.33 0.34 0.32 0.26 0.21 0.18 0.15 0.11 0.08 0.08 0.08 0.07 0.07 0.05 0.02 0.01 0.01 0.01 0.01 0.01 0.01 0.01 0.01 0.02 0.02 0.01 0.01
0.07 0.09 0.09 0.08 0.08 0.07 0.06 0.05 0.05 0.06 0.09 0.10 0.12 0.17 0.21 0.20 0.23 0.23 0.23 0.21 0.22 0.27 0.29 0.29 0.26 0.20 0.14 0.10 0.07 0.05 0.04 0.03 0.02 0.01 0.01 0.00 0.01 0.01 0.01 0.01 0.01 0.01 0.01
0.07 0.09 0.07 0.05 0.05 0.07 0.09 0.08 0.06 0.06 0.08 0.09 0.09 0.12 0.13 0.12 0.13 0.14 0.15 0.19 0.21 0.22 0.21 0.19 0.17 0.18 0.16 0.11 0.07 0.05 0.04 0.03 0.02 0.01 0.01 0.01 0.01 0.01 0.01 0.01 0.01 0.01 0.01
0.06 0.07 0.08 0.09 0.07 0.06 0.05 0.05 0.04 0.07 0.09 0.09 0.08 0.10 0.09 0.11 0.13 0.13 0.12 0.13 0.12 0.12 0.13 0.11 0.10 0.11 0.11 0.08 0.07 0.05 0.04 0.05 0.04 0.02 0.02 0.01 0.01 0.00 0.00 0.01 0.01 0.02 0.03
0.06 0.06 0.09 0.12 0.09 0.06 0.04 0.04 0.05 0.10 0.09 0.09 0.09 0.07 0.07 0.06 0.07 0.10 0.13 0.13 0.12 0.09 0.09 0.10 0.10 0.10 0.10 0.08 0.07 0.04 0.02 0.03 0.04 0.04 0.03 0.02 0.01 0.01 0.00 0.01 0.02 0.04 0.06
0.09 0.10 0.10 0.10 0.09 0.07 0.08 0.06 0.05 0.06 0.06 0.07 0.06 0.05 0.04 0.03 0.03 0.04 0.06 0.11 0.13 0.12 0.09 0.09 0.09 0.09 0.09 0.08 0.06 0.03 0.02 0.03 0.04 0.04 0.03 0.02 0.01 0.01 0.01 0.01 0.01 0.02 0.04
MSLP
1012.43 1012.31 1012.11 1011.82 1011.47 1011.12 1010.81 1010.58 1010.46 1010.46 1010.54 1010.67 1010.79 1010.85 1010.84 1010.75 1010.59 1010.41 1010.26 1010.19 1010.23 1010.40 1010.69 1011.08 1011.53 1012.00 1012.45 1012.86 1013.21 1013.51 1013.75 1013.96 1014.13 1014.26 1014.34 1014.38 1014.35 1014.26 1014.12 1013.95 1013.79 1013.66 1013.59
1012.80 1012.77 1012.63 1012.37 1012.01 1011.62 1011.24 1010.93 1010.74 1010.67 1010.71 1010.79 1010.88 1010.91 1010.84 1010.67 1010.43 1010.14 1009.88 1009.70 1009.66 1009.76 1010.01 1010.38 1010.83 1011.30 1011.76 1012.18 1012.54 1012.84 1013.09 1013.30 1013.48 1013.64 1013.75 1013.82 1013.83 1013.77 1013.65 1013.48 1013.30 1013.13 1013.01
1012.98 1013.06 1013.01 1012.82 1012.50 1012.10 1011.70 1011.35 1011.11 1010.99 1010.99 1011.04 1011.10 1011.10 1011.00 1010.77 1010.44 1010.06 1009.69 1009.39 1009.23 1009.23 1009.39 1009.70 1010.11 1010.55 1011.00 1011.41 1011.77 1012.07 1012.34 1012.57 1012.79 1012.99 1013.16 1013.29 1013.35 1013.34 1013.24 1013.09 1012.89 1012.68 1012.51
1012.98 1013.17 1013.24 1013.14 1012.89 1012.53 1012.12 1011.76 1011.49 1011.35 1011.32 1011.36 1011.40 1011.39 1011.26 1010.99 1010.60 1010.13 1009.65 1009.24 1008.94 1008.81 1008.85 1009.05 1009.37 1009.75 1010.16 1010.54 1010.90 1011.21 1011.50 1011.78 1012.04 1012.30 1012.54 1012.73 1012.85 1012.89 1012.84 1012.70 1012.50 1012.27 1012.05
1012.86 1013.15 1013.33 1013.34 1013.17 1012.86 1012.49 1012.13 1011.85 1011.68 1011.64 1011.66 1011.70 1011.68 1011.55 1011.26 1010.83 1010.30 1009.72 1009.19 1008.75 1008.47 1008.37 1008.43 1008.63 1008.93 1009.26 1009.62 1009.96 1010.28 1010.60 1010.92 1011.23 1011.55 1011.85 1012.10 1012.29 1012.38 1012.37 1012.26 1012.06 1011.82 1011.57
1012.70 1013.08 1013.36 1013.46 1013.38 1013.13 1012.79 1012.44 1012.15 1011.97 1011.90 1011.91 1011.95 1011.93 1011.80 1011.52 1011.07 1010.49 1009.85 1009.21 1008.65 1008.22 1007.96 1007.88 1007.94 1008.13 1008.38 1008.68 1009.00 1009.33 1009.66 1010.01 1010.37 1010.73 1011.07 1011.38 1011.61 1011.75 1011.77 1011.69 1011.51 1011.27 1011.00
1012.59 1013.03 1013.39 1013.57 1013.56 1013.36 1013.05 1012.70 1012.40 1012.19 1012.10 1012.09 1012.12 1012.11 1011.99 1011.71 1011.27 1010.67 1009.99 1009.27 1008.61 1008.06 1007.66 1007.43 1007.36 1007.42 1007.59 1007.82 1008.10 1008.41 1008.74 1009.10 1009.47 1009.85 1010.21 1010.53 1010.79 1010.96 1011.01 1010.96 1010.81 1010.59 1010.34
1012.58 1013.06 1013.47 1013.71 1013.74 1013.59 1013.29 1012.94 1012.61 1012.37 1012.24 1012.21 1012.22 1012.21 1012.10 1011.85 1011.42 1010.83 1010.13 1009.38 1008.65 1008.00 1007.49 1007.13 1006.94 1006.89 1006.96 1007.12 1007.34 1007.61 1007.91 1008.24 1008.59 1008.95 1009.30 1009.61 1009.86 1010.03 1010.11 1010.09 1009.98 1009.80 1009.57
1012.67 1013.18 1013.61 1013.89 1013.96 1013.82 1013.53 1013.17 1012.81 1012.54 1012.37 1012.30 1012.28 1012.26 1012.16 1011.92 1011.53 1010.97 1010.28 1009.53 1008.77 1008.08 1007.49 1007.05 1006.76 1006.62 1006.59 1006.66 1006.81 1007.01 1007.25 1007.52 1007.81 1008.11 1008.40 1008.66 1008.88 1009.04 1009.12 1009.13 1009.06 1008.93 1008.76
1012.85 1013.37 1013.82 1014.11 1014.19 1014.06 1013.77 1013.40 1013.03 1012.72 1012.51 1012.39 1012.34 1012.30 1012.20 1011.99 1011.63 1011.11 1010.47 1009.75 1009.01 1008.31 1007.70 1007.21 1006.86 1006.63 1006.53 1006.51 1006.57 1006.68 1006.83 1007.00 1007.19 1007.39 1007.59 1007.78 1007.95 1008.07 1008.15 1008.17 1008.14 1008.07 1007.95
1013.08 1013.60 1014.04 1014.33 1014.41 1014.29 1014.01 1013.64 1013.26 1012.93 1012.69 1012.54 1012.45 1012.39 1012.28 1012.08 1011.75 1011.29 1010.71 1010.05 1009.37 1008.70 1008.11 1007.61 1007.23 1006.95 1006.78 1006.68 1006.64 1006.64 1006.67 1006.73 1006.80 1006.88 1006.97 1007.06 1007.15 1007.22 1007.28 1007.31 1007.31 1007.28 1007.22
1013.29 1013.80 1014.22 1014.49 1014.57 1014.46 1014.20 1013.85 1013.48 1013.16 1012.90 1012.73 1012.62 1012.53 1012.41 1012.21 1011.91 1011.50 1010.99 1010.42 1009.81 1009.22 1008.67 1008.20 1007.82 1007.52 1007.29 1007.11 1006.98 1006.87 1006.78 1006.70 1006.64 1006.59 1006.56 1006.55 1006.55 1006.57 1006.60 1006.62 1006.64 1006.64 1006.61
1013.47 1013.94 1014.32 1014.56 1014.63 1014.54 1014.31 1014.01 1013.69 1013.39 1013.15 1012.97 1012.84 1012.72 1012.58 1012.38 1012.10 1011.74 1011.30 1010.81 1010.29 1009.79 1009.32 1008.90 1008.54 1008.23 1007.97 1007.73 1007.51 1007.30 1007.10 1006.90 1006.71 1006.54 1006.40 1006.29 1006.21 1006.17 1006.15 1006.15 1006.17 1006.18 1006.17
1013.59 1014.00 1014.32 1014.52 1014.58 1014.51 1014.33 1014.09 1013.84 1013.60 1013.39 1013.22 1013.08 1012.94 1012.78 1012.57 1012.30 1011.97 1011.59 1011.18 1010.75 1010.34 1009.95 1009.60 1009.28 1008.99 1008.70 1008.43 1008.14 1007.85 1007.55 1007.25 1006.96 1006.69 1006.46 1006.27 1006.12 1006.02 1005.96 1005.93 1005.92 1005.91 1005.89
1013.64 1013.97 1014.22 1014.37 1014.41 1014.36 1014.25 1014.09 1013.92 1013.75 1013.60 1013.46 1013.32 1013.16 1012.97 1012.74 1012.47 1012.15 1011.82 1011.47 1011.13 1010.80 1010.50 1010.22 1009.95 1009.67 1009.39 1009.09 1008.76 1008.41 1008.05 1007.68 1007.32 1007.00 1006.70 1006.46 1006.26 1006.11 1006.00 1005.93 1005.88 1005.84 1005.79
1013.64 1013.87 1014.04 1014.13 1014.16 1014.15 1014.09 1014.02 1013.94 1013.86 1013.76 1013.65 1013.51 1013.34 1013.12 1012.86 1012.57 1012.26 1011.95 1011.65 1011.37 1011.12 1010.89 1010.68 1010.45 1010.22 1009.95 1009.64 1009.30 1008.93 1008.53 1008.14 1007.75 1007.39 1007.07 1006.80 1006.57 1006.39 1006.24 1006.13 1006.03 1005.93 1005.83
1013.58 1013.73 1013.81 1013.86 1013.88 1013.89 1013.90 1013.91 1013.92 1013.91 1013.88 1013.80 1013.66 1013.47 1013.22 1012.92 1012.61 1012.29 1011.98 1011.71 1011.48 1011.29 1011.12 1010.96 1010.78 1010.58 1010.34 1010.05 1009.71 1009.34 1008.95 1008.56 1008.18 1007.83 1007.51 1007.24 1007.00 1006.80 1006.62 1006.46 1006.31 1006.16 1006.01
1013.48 1013.55 1013.58 1013.59 1013.61 1013.66 1013.72 1013.81 1013.89 1013.95 1013.95 1013.89 1013.75 1013.54 1013.25 1012.92 1012.58 1012.24 1011.93 1011.68 1011.47 1011.32 1011.19 1011.07 1010.94 1010.77 1010.56 1010.30 1009.99 1009.64 1009.28 1008.92 1008.58 1008.26 1007.97 1007.71 1007.48 1007.27 1007.08 1006.88 1006.69 1006.48 1006.27
1013.32 1013.35 1013.36 1013.36 1013.40 1013.48 1013.60 1013.74 1013.88 1013.98 1014.01 1013.96 1013.81 1013.57 1013.25 1012.89 1012.51 1012.15 1011.84 1011.59 1011.40 1011.26 1011.16 1011.07 1010.97 1010.83 1010.65 1010.42 1010.14 1009.84 1009.52 1009.21 1008.91 1008.63 1008.39 1008.16 1007.95 1007.74 1007.53 1007.31 1007.08 1006.84 1006.58
1013.11 1013.15 1013.17 1013.20 1013.26 1013.38 1013.54 1013.72 1013.89 1014.02 1014.06 1014.00 1013.84 1013.57 1013.23 1012.84 1012.44 1012.06 1011.74 1011.49 1011.30 1011.18 1011.09 1011.02 1010.93 1010.81 1010.65 1010.45 1010.21 1009.95 1009.67 1009.40 1009.15 1008.92 1008.71 1008.52 1008.32 1008.12 1007.91 1007.68 1007.43 1007.16 1006.88
1012.85 1012.94 1013.00 1013.08 1013.19 1013.35 1013.54 1013.75 1013.93 1014.05 1014.09 1014.02 1013.83 1013.55 1013.19 1012.78 1012.37 1011.99 1011.67 1011.41 1011.23 1011.10 1011.02 1010.95 1010.87 1010.76 1010.61 1010.43 1010.21 1009.98 1009.74 1009.51 1009.29 1009.10 1008.92 1008.74 1008.56 1008.37 1008.16 1007.92 1007.66 1007.38 1007.09
1012.55 1012.71 1012.85 1012.99 1013.16 1013.35 1013.56 1013.77 1013.95 1014.06 1014.07 1013.98 1013.78 1013.49 1013.13 1012.72 1012.32 1011.95 1011.63 1011.38 1011.19 1011.06 1010.96 1010.88 1010.79 1010.68 1010.54 1010.36 1010.16 1009.94 1009.73 1009.52 1009.32 1009.14 1008.98 1008.81 1008.64 1008.45 1008.23 1008.00 1007.74 1007.46 1007.18
1012.22 1012.47 1012.69 1012.90 1013.11 1013.33 1013.56 1013.75 1013.91 1013.99 1013.98 1013.87 1013.67 1013.38 1013.02 1012.64 1012.26 1011.90 1011.60 1011.35 1011.17 1011.02 1010.91 1010.82 1010.71 1010.58 1010.43 1010.26 1010.06 1009.85 1009.64 1009.44 1009.25 1009.07 1008.90 1008.73 1008.56 1008.36 1008.15 1007.91 1007.66 1007.40 1007.14
1011.87 1012.21 1012.50 1012.77 1013.02 1013.25 1013.46 1013.63 1013.76 1013.81 1013.77 1013.65 1013.45 1013.17 1012.85 1012.50 1012.15 1011.83 1011.55 1011.32 1011.13 1010.98 1010.85 1010.73 1010.61 1010.46 1010.30 1010.12 1009.92 1009.71 1009.51 1009.31 1009.11 1008.93 1008.75 1008.57 1008.38 1008.18 1007.96 1007.73 1007.49 1007.24 1006.99
1011.53 1011.93 1012.27 1012.57 1012.83 1013.05 1013.24 1013.38 1013.46 1013.48 1013.43 1013.30 1013.11 1012.87 1012.58 1012.28 1011.98 1011.70 1011.45 1011.23 1011.05 1010.89 1010.74 1010.61 1010.47 1010.31 1010.15 1009.96 1009.77 1009.57 1009.37 1009.17 1008.98 1008.78 1008.59 1008.40 1008.20 1007.99 1007.77 1007.54 1007.31 1007.07 1006.83
1011.19 1011.61 1011.97 1012.28 1012.53 1012.73 1012.88 1012.98 1013.02 1013.01 1012.94 1012.82 1012.66 1012.45 1012.22 1011.97 1011.72 1011.49 1011.27 1011.07 1010.89 1010.73 1010.58 1010.44 1010.29 1010.14 1009.99 1009.82 1009.65 1009.47 1009.29 1009.11 1008.92 1008.74 1008.55 1008.35 1008.15 1007.94 1007.72 1007.49 1007.25 1007.01 1006.77
Thickness
5809 5808 5806 5804 5799 5795 5792 5789 5786 5784 5782 5779 5777 5775 5773 5775 5776 5777 5777 5777 5776 5775 5773 5771 5769 5768 5765 5763 5762 5760 5758 5756 5756 5752 5750 5754 5757 5758 5759 5758 5757 5756 5756
5806 5806 5805 5803 5800 5797 5794 5791 5788 5787 5785 5783 5781 5779 5778 5777 5778 5779 5779 5778 5778 5776 5774 5772 5770 5768 5766 5763 5762 5760 5756 5755 5755 5749 5743 5741 5745 5752 5758 5757 5757 5756 5755
5810 5808 5806 5804 5801 5799 5797 5796 5792 5790 5788 5786 5783 5780 5778 5778 5777 5777 5778 5779 5779 5777 5776 5774 5771 5769 5766 5763 5762 5761 5757 5753 5753 5752 5745 5737 5734 5741 5750 5754 5755 5755 5754
5815 5810 5808 5806 5804 5803 5802 5799 5796 5793 5790 5788 5784 5780 5776 5774 5776 5778 5778 5779 5779 5778 5776 5774 5772 5769 5767 5765 5763 5762 5759 5755 5751 5751 5751 5749 5745 5739 5738 5746 5751 5753 5752
5818 5815 5814 5813 5811 5808 5805 5802 5798 5795 5792 5790 5787 5783 5780 5778 5778 5778 5777 5777 5778 5777 5776 5775 5772 5770 5767 5766 5764 5762 5760 5757 5753 5751 5750 5748 5746 5744 5738 5736 5742 5746 5750
5820 5818 5818 5815 5812 5810 5807 5803 5798 5795 5794 5791 5788 5785 5782 5779 5777 5776 5776 5776 5776 5776 5776 5775 5773 5770 5768 5766 5764 5762 5760 5758 5756 5753 5751 5748 5745 5742 5740 5736 5737 5738 5744
5819 5816 5814 5812 5811 5809 5807 5804 5799 5796 5794 5791 5789 5787 5784 5782 5779 5778 5776 5775 5774 5774 5775 5775 5772 5770 5768 5766 5763 5761 5759 5758 5755 5754 5752 5750 5749 5747 5743 5739 5736 5736 5740
5819 5819 5818 5817 5814 5811 5808 5804 5800 5796 5794 5792 5789 5788 5786 5783 5782 5780 5778 5776 5775 5775 5775 5774 5772 5769 5767 5765 5762 5759 5758 5757 5755 5754 5752 5750 5749 5748 5746 5742 5737 5733 5733
5818 5818 5817 5816 5814 5811 5809 5805 5801 5797 5794 5792 5790 5787 5785 5783 5781 5780 5779 5777 5776 5775 5774 5772 5770 5768 5765 5763 5761 5758 5756 5755 5753 5751 5750 5748 5748 5748 5747 5745 5742 5734 5727
5816 5816 5815 5813 5813 5811 5809 5805 5800 5796 5794 5791 5789 5788 5785 5784 5782 5779 5777 5776 5774 5773 5772 5770 5768 5765 5763 5761 5758 5755 5754 5752 5750 5749 5748 5746 5746 5746 5745 5744 5742 5739 5733
5811 5812 5813 5812 5810 5809 5805 5801 5798 5794 5791 5790 5788 5786 5784 5782 5780 5777 5776 5774 5772 5771 5769 5767 5765 5763 5760 5758 5755 5753 5751 5749 5748 5747 5745 5744 5743 5742 5742 5741 5740 5737 5734
5807 5809 5809 5807 5805 5803 5802 5800 5797 5794 5791 5789 5786 5782 5780 5778 5776 5774 5773 5772 5770 5768 5766 5763 5761 5759 5757 5755 5753 5750 5749 5746 5744 5743 5742 5740 5740 5739 5738 5737 5736 5734 5733
5801 5802 5802 5801 5799 5798 5797 5796 5795 5792 5789 5786 5782 5779 5776 5774 5772 5771 5770 5768 5766 5764 5762 5760 5757 5755 5753 5751 5750 5747 5745 5743 5742 5741 5739 5737 5736 5734 5733 5732 5731 5730 5731
5793 5793 5792 5792 5793 5793 5792 5792 5791 5789 5786 5781 5778 5775 5774 5772 5769 5768 5766 5764 5762 5760 5757 5755 5753 5751 5750 5748 5746 5744 5742 5740 5739 5738 5737 5735 5733 5731 5730 5729 5727 5726 5724
5784 5785 5785 5785 5786 5785 5785 5785 5785 5784 5782 5777 5773 5771 5770 5768 5765 5762 5761 5759 5757 5756 5753 5751 5749 5747 5745 5745 5742 5740 5738 5735 5734 5733 5733 5732 5731 5729 5727 5725 5722 5720 5717
5778 5779 5779 5778 5778 5778 5777 5777 5777 5776 5775 5771 5767 5766 5764 5762 5759 5756 5755 5752 5751 5750 5747 5744 5743 5742 5742 5741 5739 5737 5734 5731 5729 5727 5726 5726 5725 5724 5723 5721 5719 5717 5713
5771 5772 5772 5771 5770 5771 5772 5771 5769 5767 5766 5764 5762 5760 5758 5756 5754 5752 5748 5746 5744 5743 5741 5739 5737 5736 5736 5735 5734 5732 5729 5726 5724 5722 5720 5720 5719 5718 5715 5714 5713 5711 5710
5761 5763 5764 5764 5764 5764 5764 5764 5762 5758 5756 5755 5754 5752 5750 5748 5746 5744 5742 5740 5738 5736 5734 5732 5731 5729 5730 5729 5728 5726 5723 5721 5719 5718 5716 5713 5711 5710 5707 5705 5703 5703 5702
5755 5756 5757 5758 5757 5756 5756 5754 5751 5748 5745 5743 5744 5743 5743 5740 5738 5737 5735 5734 5731 5728 5727 5726 5724 5722 5723 5723 5721 5719 5716 5713 5712 5711 5710 5707 5704 5703 5701 5697 5694 5694 5694
5746 5747 5748 5748 5746 5746 5746 5744 5740 5737 5735 5735 5736 5736 5736 5733 5730 5729 5728 5726 5723 5721 5719 5718 5717 5716 5715 5715 5713 5711 5708 5705 5703 5702 5702 5701 5698 5696 5693 5689 5686 5684 5685
5737 5737 5737 5736 5736 5736 5735 5732 5731 5729 5729 5729 5729 5728 5728 5725 5723 5722 5720 5718 5716 5714 5712 5710 5709 5709 5708 5707 5705 5704 5701 5697 5695 5693 5692 5692 5690 5688 5685 5682 5679 5678 5678
5725 5725 5723 5724 5725 5725 5724 5721 5721 5722 5722 5720 5719 5717 5717 5716 5715 5713 5711 5710 5707 5704 5701 5700 5699 5698 5698 5698 5697 5695 5693 5691 5687 5685 5685 5684 5682 5680 5677 5675 5673 5672 5670
5712 5713 5712 5712 5712 5713 5712 5710 5710 5712 5711 5709 5708 5707 5706 5705 5704 5702 5700 5699 5696 5693 5691 5689 5687 5687 5688 5687 5687 5686 5684 5682 5680 5678 5677 5676 5674 5672 5669 5668 5667 5664 5661
5700 5701 5699 5697 5699 5700 5701 5700 5701 5701 5699 5697 5696 5696 5695 5694 5693 5692 5691 5689 5688 5685 5683 5681 5679 5679 5678 5676 5675 5675 5673 5672 5670 5668 5667 5666 5664 5663 5661 5660 5658 5656 5654
5689 5689 5687 5686 5687 5689 5690 5690 5691 5690 5687 5686 5685 5684 5684 5683 5682 5681 5680 5680 5680 5679 5677 5674 5672 5670 5668 5668 5668 5666 5664 5662 5660 5658 5655 5653 5652 5651 5650 5649 5648 5647 5645
5677 5678 5678 5678 5678 5680 5680 5681 5681 5679 5677 5675 5675 5674 5674 5673 5672 5670 5669 5671 5671 5671 5670 5669 5667 5664 5663 5660 5658 5656 5655 5653 5651 5648 5645 5644 5643 5642 5641 5639 5638 5637 5636